Time,TemperatureF,DewpointF,PressureIn,WindDirection,WindDirectionDegrees,WindSpeedMPH,WindSpeedGustMPH,Humidity,HourlyPrecipIn,Conditions,Clouds,dailyrainin,SoftwareType,DateUTC
2013-12-20 08:52:00,63.0,59.0,29.77,WNW,298,0.0,4.0,86,0.00,,,0.00,,2013-12-20 14:52:00,
2013-12-20 09:11:00,63.0,59.0,29.78,NW,305,2.0,6.0,86,0.00,,,0.00,,2013-12-20 15:11:00,
2013-12-20 09:22:00,52.0,46.0,29.80,West,280,5.0,10.0,80,0.00,,,0.00,,2013-12-20 15:22:00,
2013-12-20 09:54:00,45.0,42.0,29.83,WNW,284,5.0,9.0,88,0.00,,,0.00,,2013-12-20 15:54:00,
2013-12-20 10:13:00,43.0,40.0,29.85,WNW,290,4.0,11.0,88,0.00,,,0.00,,2013-12-20 16:13:00,
2013-12-20 10:23:00,41.0,39.0,29.86,NW,317,2.0,9.0,91,0.00,,,0.00,,2013-12-20 16:23:00,
2013-12-20 10:43:00,40.0,38.0,29.88,WNW,292,3.0,8.0,92,0.00,,,0.00,,2013-12-20 16:43:00,
2013-12-20 10:53:00,38.0,36.0,29.90,West,272,4.0,9.0,92,0.00,,,0.00,,2013-12-20 16:53:00,
2013-12-20 11:12:00,38.0,36.0,29.90,WNW,292,3.0,8.0,93,0.00,,,0.00,,2013-12-20 17:12:00,
2013-12-20 11:22:00,38.0,36.0,29.90,WNW,288,1.0,6.0,93,0.00,,,0.00,,2013-12-20 17:22:00,
2013-12-20 11:42:00,37.0,35.0,29.90,WNW,301,3.0,6.0,94,0.00,,,0.00,,2013-12-20 17:42:00,
2013-12-20 11:52:00,37.0,35.0,29.90,WNW,286,1.0,6.0,94,0.00,,,0.00,,2013-12-20 17:52:00,
2013-12-20 12:12:00,37.0,35.0,29.91,WNW,287,2.0,6.0,94,0.00,,,0.00,,2013-12-20 18:12:00,
2013-12-20 12:22:00,36.0,34.0,29.91,NW,315,3.0,6.0,94,0.00,,,0.00,,2013-12-20 18:22:00,
2013-12-20 12:42:00,36.0,34.0,29.91,WNW,285,2.0,8.0,94,0.00,,,0.00,,2013-12-20 18:42:00,
2013-12-20 12:52:00,35.0,34.0,29.91,WNW,288,2.0,8.0,95,0.00,,,0.00,,2013-12-20 18:52:00,
2013-12-20 13:12:00,35.0,34.0,29.91,WNW,288,2.0,5.0,95,0.00,,,0.00,,2013-12-20 19:12:00,
2013-12-20 13:22:00,34.0,33.0,29.90,West,279,2.0,6.0,95,0.00,,,0.00,,2013-12-20 19:22:00,
2013-12-20 13:42:00,34.0,33.0,29.89,West,274,0.0,4.0,95,0.00,,,0.00,,2013-12-20 19:42:00,
2013-12-20 13:52:00,34.0,33.0,29.89,West,273,0.0,6.0,95,0.00,,,0.00,,2013-12-20 19:52:00,
2013-12-20 14:11:00,34.0,33.0,29.88,West,279,0.0,6.0,95,0.00,,,0.00,,2013-12-20 20:11:00,
2013-12-20 14:22:00,34.0,32.0,29.88,NNE,15,0.0,2.0,94,0.00,,,0.00,,2013-12-20 20:22:00,
2013-12-20 14:42:00,34.0,32.0,29.89,West,280,1.0,4.0,94,0.00,,,0.00,,2013-12-20 20:42:00,
2013-12-20 14:52:00,34.0,32.0,29.90,WNW,286,0.0,5.0,94,0.00,,,0.00,,2013-12-20 20:52:00,
2013-12-20 15:12:00,34.0,32.0,29.89,West,279,1.0,6.0,94,0.00,,,0.00,,2013-12-20 21:12:00,
2013-12-20 15:22:00,34.0,32.0,29.89,West,279,1.0,2.0,94,0.00,,,0.00,,2013-12-20 21:22:00,
2013-12-20 15:43:00,34.0,33.0,29.90,WNW,284,1.0,3.0,95,0.00,,,0.00,,2013-12-20 21:43:00,
2013-12-20 15:53:00,33.0,32.0,29.90,WNW,300,0.0,5.0,96,0.00,,,0.00,,2013-12-20 21:53:00,
2013-12-20 16:13:00,33.0,32.0,29.90,WNW,284,0.0,4.0,96,0.00,,,0.00,,2013-12-20 22:13:00,
2013-12-20 16:23:00,33.0,32.0,29.91,West,272,1.0,4.0,96,0.00,,,0.00,,2013-12-20 22:23:00,
2013-12-20 16:43:00,33.0,32.0,29.91,West,277,0.0,4.0,96,0.00,,,0.00,,2013-12-20 22:43:00,
2013-12-20 16:53:00,33.0,32.0,29.93,West,280,1.0,4.0,96,0.00,,,0.00,,2013-12-20 22:53:00,
2013-12-20 17:12:00,33.0,32.0,29.93,West,278,1.0,4.0,96,0.00,,,0.00,,2013-12-20 23:12:00,
2013-12-20 17:22:00,33.0,32.0,29.93,West,277,0.0,4.0,96,0.00,,,0.00,,2013-12-20 23:22:00,
2013-12-20 17:42:00,32.0,31.0,29.92,West,279,0.0,4.0,96,0.00,,,0.00,,2013-12-20 23:42:00,
2013-12-20 17:53:00,32.0,31.0,29.92,West,274,0.0,5.0,97,0.00,,,0.00,,2013-12-20 23:53:00,
2013-12-20 18:11:00,32.0,31.0,29.92,West,274,0.0,4.0,97,0.00,,,0.00,,2013-12-21 00:11:00,
2013-12-20 18:22:00,32.0,31.0,29.91,West,274,0.0,1.0,97,0.00,,,0.00,,2013-12-21 00:22:00,
2013-12-20 18:42:00,32.0,31.0,29.92,West,274,0.0,1.0,97,0.00,,,0.00,,2013-12-21 00:42:00,
2013-12-20 18:52:00,32.0,31.0,29.91,West,274,0.0,0.0,97,0.00,,,0.00,,2013-12-21 00:52:00,
2013-12-20 19:11:00,33.0,32.0,29.91,West,274,0.0,1.0,97,0.00,,,0.00,,2013-12-21 01:11:00,
2013-12-20 19:22:00,33.0,32.0,29.91,West,274,0.0,1.0,96,0.00,,,0.00,,2013-12-21 01:22:00,
2013-12-20 19:42:00,33.0,32.0,29.91,West,274,0.0,0.0,96,0.01,,,0.01,,2013-12-21 01:42:00,
2013-12-20 19:52:00,33.0,32.0,29.91,West,274,0.0,1.0,96,0.01,,,0.01,,2013-12-21 01:52:00,
2013-12-20 20:12:00,33.0,32.0,29.90,West,274,0.0,1.0,96,0.02,,,0.02,,2013-12-21 02:12:00,
2013-12-20 20:21:00,33.0,32.0,29.89,West,274,0.0,0.0,96,0.02,,,0.02,,2013-12-21 02:21:00,
2013-12-20 20:42:00,33.0,32.0,29.89,West,274,0.0,0.0,96,0.01,,,0.02,,2013-12-21 02:42:00,
2013-12-20 20:52:00,33.0,32.0,29.88,West,274,0.0,0.0,96,0.01,,,0.02,,2013-12-21 02:52:00,
2013-12-20 21:11:00,33.0,32.0,29.86,West,275,0.0,1.0,96,0.00,,,0.02,,2013-12-21 03:11:00,
2013-12-20 21:22:00,33.0,32.0,29.88,West,275,0.0,0.0,96,0.00,,,0.02,,2013-12-21 03:22:00,
2013-12-20 21:43:00,33.0,32.0,29.86,West,274,0.0,0.0,96,0.00,,,0.02,,2013-12-21 03:43:00,
2013-12-20 21:53:00,33.0,32.0,29.85,West,274,0.0,1.0,96,0.00,,,0.02,,2013-12-21 03:53:00,
2013-12-20 22:12:00,33.0,32.0,29.85,West,274,0.0,0.0,96,0.00,,,0.02,,2013-12-21 04:12:00,
2013-12-20 22:23:00,33.0,32.0,29.84,North,355,0.0,1.0,96,0.00,,,0.02,,2013-12-21 04:23:00,
2013-12-20 22:43:00,33.0,32.0,29.85,NE,41,0.0,0.0,96,0.00,,,0.02,,2013-12-21 04:43:00,
2013-12-20 22:52:00,33.0,32.0,29.85,West,269,0.0,1.0,96,0.00,,,0.02,,2013-12-21 04:52:00,
2013-12-20 23:12:00,33.0,32.0,29.84,West,275,1.0,4.0,96,0.01,,,0.03,,2013-12-21 05:12:00,
2013-12-20 23:22:00,33.0,32.0,29.83,West,279,0.0,2.0,97,0.01,,,0.03,,2013-12-21 05:22:00,
2013-12-20 23:42:00,33.0,32.0,29.81,West,279,0.0,1.0,96,0.02,,,0.04,,2013-12-21 05:42:00,
2013-12-20 23:52:00,33.0,32.0,29.81,West,275,0.0,2.0,97,0.02,,,0.04,,2013-12-21 05:52:00,